Wind_Speed
8 9 10 11 12 12 12 11 11 10 10 10 10 10 10 10 11 11 12 12 11 9 7 5 4 4 4 5 5 5 3 1 1 3 5 6 7 8 9 9 10 11 11 11 12 14 15 16 16
7 9 10 11 12 13 12 12 12 12 11 11 11 11 10 10 10 10 9 10 9 9 9 7 5 4 4 3 3 3 3 2 1 0 2 3 5 6 7 8 9 10 10 11 12 12 13 13 14
7 9 10 11 12 12 12 12 13 13 12 11 11 11 11 11 11 10 9 8 8 8 8 8 7 6 4 4 4 4 3 2 2 1 2 3 3 4 5 6 7 8 9 10 11 11 11 12 13
8 10 11 11 11 11 10 11 12 13 12 12 11 11 11 11 10 10 9 8 8 8 8 7 7 7 6 5 5 5 6 6 6 6 6 5 6 6 6 7 7 8 9 10 10 11 11 12 13
10 11 11 11 11 11 10 10 11 12 13 13 12 12 12 11 10 10 9 9 9 9 9 9 8 8 8 7 6 6 6 8 9 9 10 10 10 10 10 10 10 10 11 11 12 12 13 14 15
11 12 12 11 11 11 11 11 12 13 14 15 14 13 12 12 12 12 11 10 10 9 9 10 10 10 10 10 9 9 8 9 9 11 12 13 14 14 15 15 14 14 14 14 14 15 15 16 16
13 14 14 13 12 11 12 13 14 15 16 16 15 14 12 12 13 13 13 13 12 11 10 10 11 12 12 12 12 12 12 11 11 12 13 14 15 16 18 19 19 18 18 18 18 18 18 18 19
15 16 17 15 13 13 13 14 16 17 17 17 16 14 13 12 12 12 13 14 14 13 12 11 11 12 13 14 15 16 16 16 16 16 16 16 16 17 18 20 21 22 22 22 22 22 22 22 22
17 18 18 17 16 15 15 16 17 18 18 17 16 15 14 13 12 12 13 13 14 15 15 14 14 13 14 14 16 17 19 20 20 21 21 21 20 20 20 21 22 23 24 24 25 25 26 25 25
20 21 20 19 18 17 17 17 18 19 19 19 17 16 15 15 15 14 14 15 15 16 17 18 18 18 18 18 19 19 21 22 23 24 25 26 26 25 25 25 25 25 25 25 26 27 27 28 28
23 23 21 19 18 18 19 19 20 20 20 20 20 20 19 18 18 17 17 17 18 18 19 20 21 22 23 24 24 24 25 25 26 26 27 28 29 30 30 30 30 29 29 28 28 28 28 29 30
25 24 22 20 19 19 20 21 21 21 21 21 21 22 22 22 22 21 21 20 20 21 21 21 22 24 25 26 28 29 29 30 30 30 30 30 31 32 33 33 34 34 34 34 33 32 31 31 31
24 23 23 22 22 22 22 23 24 24 24 23 23 23 23 24 24 24 24 24 24 23 23 23 24 25 26 27 29 30 31 33 34 34 34 34 33 33 34 35 35 36 37 38 38 37 37 36 36
23 23 23 24 25 25 25 25 26 26 26 25 25 24 24 24 25 26 26 26 26 26 26 26 26 26 27 28 29 31 32 34 36 37 37 37 37 37 37 37 37 38 39 39 40 41 41 41 41
26 25 25 26 27 27 27 26 28 27 27 26 26 26 26 26 27 28 28 28 28 27 28 28 27 27 28 29 30 31 33 35 36 38 39 40 40 40 40 40 41 41 42 42 42 43 43 44 44
28 27 26 27 28 28 27 27 28 28 27 27 27 28 29 29 30 30 30 30 29 29 29 29 29 30 30 31 31 32 33 35 37 39 40 41 42 43 43 44 44 45 45 46 46 46 46 46 47
29 28 26 27 28 29 29 27 27 28 28 28 29 30 31 31 32 32 31 31 31 31 31 31 32 32 32 33 33 34 35 35 37 38 40 42 43 44 45 46 47 48 48 49 49 49 49 49 49
30 29 28 28 30 31 31 28 28 29 29 30 31 31 32 32 33 33 32 32 33 33 33 34 34 35 35 36 37 37 37 38 39 39 41 42 44 45 46 47 48 49 50 51 52 52 52 52 52
33 33 32 31 33 34 33 31 30 30 30 31 32 32 32 32 32 32 33 34 35 35 36 37 38 38 39 40 41 42 42 42 43 43 44 45 46 47 48 49 50 50 51 52 53 54 55 56 56
37 37 36 35 35 35 34 33 31 30 30 31 31 32 32 32 32 33 34 35 37 38 39 40 41 42 43 44 45 47 48 48 49 49 49 50 50 51 52 53 54 54 55 55 56 56 57 58 59
39 38 37 37 36 35 36 35 31 31 32 33 33 33 33 34 34 35 36 38 39 41 42 43 44 46 47 48 49 51 52 53 54 54 54 54 55 55 55 56 57 57 58 59 59 59 59 60 60
40 37 37 37 37 37 37 38 34 33 34 35 35 35 36 36 37 38 40 41 43 45 46 48 49 50 51 51 52 54 56 57 58 58 58 59 59 59 59 60 61 61 62 62 63 63 63 64 64
39 37 37 38 39 40 39 40 39 37 36 36 37 38 39 39 41 42 44 46 47 49 51 52 54 55 55 56 57 58 59 60 62 62 62 62 63 63 64 65 65 66 66 66 66 67 68 68 68
39 38 39 40 41 43 39 41 43 42 41 40 40 41 41 42 44 46 48 50 52 54 55 56 58 59 59 60 60 61 62 63 64 65 66 66 67 67 68 68 69 70 71 71 71 72 72 72 73
39 39 41 42 44 45 43 45 46 46 45 44 44 44 45 46 48 50 53 55 57 58 59 61 62 63 63 64 64 64 64 65 66 67 68 69 70 71 71 72 73 73 74 75 76 77 77 77 78
40 41 42 44 47 48 48 50 49 49 48 46 46 47 48 49 51 54 57 59 61 62 63 64 65 66 66 67 67 66 66 67 68 69 70 71 72 73 74 76 77 78 78 79 80 81 82 82 83
43 43 43 46 49 51 52 52 52 52 50 49 49 50 51 52 55 58 60 62 63 64 65 66 67 67 68 68 68 68 68 68 69 70 71 73 74 76 78 79 81 83 84 85 86 87 87 88 88
44 45 46 48 51 54 55 55 56 55 53 52 52 53 54 56 58 61 63 64 66 67 68 69 69 69 69 69 69 69 69 70 71 72 74 75 77 79 81 83 85 87 88 89 90 91 92 93 93
46 48 49 50 53 55 58 59 60 58 56 56 55 55 57 59 61 63 65 66 68 69 70 70 70 70 70 69 70 70 71 72 74 75 77 79 82 84 85 87 88 90 91 92 93 93 94 94 95
50 49 49 51 53 56 61 63 61 58 56 56 56 58 61 62 64 66 67 68 69 69 70 71 71 71 71 71 72 72 74 75 77 79 81 83 85 87 88 89 90 91 92 93 93 93 94 95 95
Wind_Direction
43 28 14 7 3 3 8 4 360 1 5 9 12 17 19 22 29 32 30 31 32 29 25 17 14 18 24 32 41 50 56 69 237 251 261 270 274 275 278 280 280 278 276 273 267 263 261 260 261
25 11 1 357 352 353 359 359 358 360 360 1 2 3 3 4 8 13 16 15 16 18 19 15 3 344 334 342 360 20 38 45 43 313 270 272 276 277 276 277 278 279 277 275 270 264 260 256 255
3 355 353 350 346 349 354 356 357 359 360 0 360 359 359 358 357 355 355 353 353 355 358 1 1 355 334 307 297 301 303 301 294 284 275 273 274 274 271 270 270 272 272 271 268 263 257 252 249
348 347 346 344 342 344 346 348 351 353 355 356 356 358 0 360 356 351 347 341 334 330 329 330 334 337 336 324 300 281 276 275 272 269 266 264 264 265 263 262 260 259 257 255 255 254 251 249 248
340 339 340 338 334 334 334 335 338 340 341 343 347 351 353 352 349 345 343 337 329 321 314 309 307 307 310 312 308 297 282 273 269 268 266 265 264 263 261 259 257 256 254 252 250 248 247 248 249
331 331 330 327 323 323 323 323 325 327 329 331 332 334 337 337 335 334 333 333 330 322 312 304 299 295 293 293 294 293 290 285 279 274 269 266 263 263 263 262 261 260 260 258 256 253 250 249 250
320 322 320 318 314 312 313 316 318 322 325 329 331 329 326 325 323 323 323 324 326 324 316 306 298 293 289 285 283 281 280 280 279 279 278 274 271 267 266 265 264 263 263 261 259 258 256 254 252
312 314 313 311 307 305 308 313 317 321 325 331 335 336 331 324 317 313 311 310 310 310 309 304 299 295 291 287 282 279 277 275 274 273 273 274 275 274 273 271 269 266 264 263 262 261 260 258 257
305 307 308 304 301 300 303 309 313 317 322 326 328 331 332 329 323 314 305 300 296 295 294 292 291 289 287 285 282 280 277 275 274 272 270 270 270 271 272 273 272 270 268 267 265 264 262 262 261
300 303 303 299 296 295 297 302 306 311 315 317 317 319 320 320 318 313 307 300 294 290 287 286 286 284 282 279 278 277 276 275 274 273 272 271 269 268 268 268 270 271 272 271 270 268 267 265 265
297 297 296 293 292 292 294 297 301 305 309 311 313 313 313 311 309 306 303 300 298 294 289 285 283 282 281 280 278 276 275 274 274 274 274 273 272 269 267 266 266 267 269 270 270 270 270 269 268
293 293 291 288 288 290 292 294 296 301 305 307 309 310 308 306 304 303 301 299 298 296 293 290 286 284 282 280 279 277 276 276 276 276 275 275 275 273 270 267 265 265 265 265 265 266 267 268 268
290 289 288 288 290 291 292 293 296 299 301 303 304 304 302 301 302 302 301 300 299 297 295 292 289 287 284 282 279 278 276 275 274 274 274 274 274 275 274 272 270 267 265 264 263 263 262 263 264
285 283 284 287 289 291 291 292 293 294 296 297 298 298 297 298 300 301 302 301 300 299 297 295 292 289 286 283 280 278 276 274 273 271 271 271 271 271 272 273 273 271 268 267 265 265 263 262 262
281 279 279 280 282 284 285 285 286 289 290 291 293 294 295 297 299 300 300 299 297 296 295 294 293 290 287 285 282 279 277 275 274 272 272 271 270 269 268 269 270 271 271 270 268 267 266 265 264
280 279 278 278 280 280 279 280 282 284 286 288 291 293 294 296 297 297 297 296 294 293 293 292 292 291 290 287 285 282 280 278 276 275 273 272 271 270 269 268 267 268 269 269 269 268 267 267 266
279 280 282 282 280 278 278 278 280 282 285 288 290 291 292 293 294 295 295 294 293 292 291 291 291 290 289 288 286 284 282 279 277 276 275 274 272 271 271 270 269 268 268 268 268 268 267 267 267
280 283 283 282 280 278 279 279 278 280 284 286 287 289 290 291 292 293 293 292 292 291 291 290 289 288 288 287 286 284 282 280 278 276 274 273 273 272 272 271 270 270 269 269 268 267 267 266 266
283 284 284 282 279 278 279 280 280 281 283 284 286 287 288 289 290 290 290 290 289 289 289 288 288 287 286 285 284 283 281 280 278 276 274 272 271 271 270 270 270 269 269 269 269 268 268 267 266
281 283 284 282 280 280 281 281 282 284 284 285 286 287 288 289 289 288 288 287 287 287 286 285 285 285 285 284 283 282 280 278 276 275 273 272 270 269 269 269 269 269 269 268 267 267 268 267 267
278 280 280 280 280 281 282 283 285 287 287 287 288 289 290 290 289 288 288 287 287 286 285 285 284 284 283 282 281 280 279 278 276 274 272 271 269 268 268 267 267 267 267 267 267 266 266 266 266
274 275 275 277 279 280 283 287 289 287 287 289 290 292 292 291 290 289 288 287 286 285 285 284 283 283 282 280 279 278 277 276 275 274 272 271 269 268 267 267 266 266 266 266 266 265 265 265 265
271 272 273 275 277 280 284 288 290 289 290 291 292 292 291 290 289 288 287 287 286 285 284 284 283 283 281 279 277 276 275 274 273 273 272 271 270 270 269 268 267 267 266 266 266 265 265 264 264
270 271 272 274 277 280 284 285 288 290 290 290 290 290 289 287 287 287 287 287 286 285 284 284 283 283 282 280 278 277 275 274 273 273 273 273 272 272 272 271 270 270 269 269 268 268 267 266 266
269 270 271 274 278 281 282 282 285 288 290 291 291 291 290 289 288 288 288 288 287 286 285 285 284 283 282 281 280 279 277 275 275 274 274 274 274 275 275 275 275 274 273 273 272 271 271 270 270
267 268 271 275 278 280 282 283 286 288 289 290 290 290 290 289 288 288 287 287 286 286 285 284 284 283 282 281 280 279 278 277 276 276 276 276 277 277 277 278 278 278 277 277 276 275 274 274 273
267 269 272 273 276 279 281 285 287 289 289 290 290 290 289 288 287 286 285 285 285 284 284 283 282 281 281 280 280 280 279 279 279 279 280 280 280 280 281 281 281 280 280 279 279 278 277 276 275
268 270 270 272 275 278 282 285 287 286 287 289 288 288 287 286 285 284 284 284 284 284 283 283 283 282 282 282 282 282 282 282 282 283 283 284 284 284 284 284 284 283 282 281 280 279 278 277 276
267 268 270 272 274 278 282 284 286 288 290 290 289 289 287 285 284 283 284 284 284 284 284 284 284 284 284 284 284 284 284 285 285 286 286 286 286 286 286 285 285 284 283 281 280 279 278 277 276
268 270 271 273 276 277 279 283 287 288 289 288 288 287 286 285 285 285 285 286 285 285 285 285 285 285 285 285 286 286 287 287 288 288 288 288 288 287 286 286 285 284 283 282 280 279 278 277 276
Height
5875 5875 5875 5875 5875 5874 5872 5872 5872 5871 5869 5869 5868 5867 5867 5867 5867 5868 5866 5864 5864 5864 5863 5864 5864 5864 5864 5864 5864 5864 5864 5864 5865 5866 5867 5868 5868 5869 5870 5871 5872 5873 5873 5874 5875 5876 5876 5877 5878
5875 5876 5876 5876 5875 5874 5873 5873 5872 5871 5870 5869 5868 5868 5867 5866 5866 5867 5866 5865 5865 5865 5864 5864 5864 5864 5864 5864 5864 5864 5864 5865 5865 5866 5866 5867 5868 5868 5869 5870 5870 5871 5872 5872 5873 5874 5874 5875 5876
5876 5876 5877 5876 5875 5874 5873 5873 5872 5871 5870 5870 5869 5868 5867 5867 5866 5866 5866 5866 5865 5865 5865 5864 5864 5864 5864 5864 5864 5864 5864 5864 5865 5865 5866 5866 5866 5867 5867 5868 5868 5869 5870 5870 5871 5871 5872 5873 5873
5876 5877 5877 5876 5874 5874 5873 5872 5871 5871 5871 5870 5869 5869 5868 5867 5866 5866 5865 5865 5865 5865 5864 5864 5864 5864 5864 5864 5863 5863 5863 5864 5864 5864 5864 5865 5865 5865 5866 5866 5866 5866 5867 5867 5868 5868 5869 5870 5870
5876 5876 5876 5874 5873 5873 5872 5871 5871 5870 5870 5870 5870 5869 5868 5867 5866 5865 5865 5864 5864 5864 5863 5863 5863 5863 5863 5863 5863 5863 5863 5863 5863 5863 5863 5863 5864 5864 5864 5864 5864 5864 5864 5864 5865 5865 5866 5866 5867
5875 5875 5875 5873 5872 5871 5871 5870 5870 5869 5869 5869 5869 5869 5868 5867 5866 5865 5864 5863 5863 5863 5862 5862 5862 5862 5862 5862 5862 5862 5862 5861 5861 5861 5861 5861 5861 5861 5861 5862 5862 5862 5862 5862 5862 5863 5863 5863 5863
5874 5873 5873 5872 5871 5870 5870 5869 5868 5868 5867 5867 5867 5867 5867 5866 5865 5864 5863 5863 5862 5862 5861 5861 5860 5860 5860 5860 5860 5860 5860 5859 5859 5859 5859 5859 5859 5859 5858 5858 5859 5859 5859 5859 5859 5860 5860 5860 5860
5871 5872 5870 5870 5869 5869 5868 5867 5866 5866 5866 5866 5866 5865 5865 5864 5863 5863 5862 5861 5861 5860 5860 5859 5859 5858 5858 5857 5857 5857 5857 5857 5856 5856 5856 5856 5856 5856 5855 5855 5855 5855 5855 5856 5856 5856 5856 5857 5857
5869 5870 5868 5867 5867 5867 5866 5866 5865 5864 5863 5864 5863 5863 5863 5862 5861 5860 5859 5859 5858 5857 5857 5856 5856 5856 5855 5855 5854 5854 5853 5853 5853 5853 5853 5853 5852 5852 5852 5851 5851 5851 5851 5852 5852 5852 5852 5852 5853
5867 5866 5865 5865 5864 5864 5864 5863 5863 5862 5861 5861 5861 5861 5860 5859 5858 5857 5856 5856 5855 5854 5854 5853 5853 5852 5852 5851 5851 5850 5849 5849 5849 5849 5849 5849 5848 5848 5848 5847 5847 5847 5847 5848 5848 5848 5848 5848 5848
5862 5862 5861 5861 5861 5861 5860 5860 5860 5860 5859 5858 5857 5857 5856 5855 5855 5854 5853 5852 5852 5851 5850 5850 5849 5849 5848 5848 5847 5846 5845 5845 5844 5844 5844 5844 5844 5843 5843 5843 5842 5842 5842 5842 5843 5843 5843 5843 5843
5858 5857 5857 5857 5857 5857 5857 5856 5856 5856 5856 5855 5854 5853 5852 5851 5850 5850 5849 5849 5848 5847 5846 5846 5845 5844 5843 5843 5842 5842 5841 5841 5840 5839 5839 5838 5838 5837 5837 5837 5837 5836 5836 5836 5836 5837 5837 5837 5838
5854 5853 5852 5852 5852 5852 5852 5851 5851 5851 5851 5850 5850 5849 5848 5847 5846 5845 5844 5844 5843 5842 5841 5841 5840 5839 5838 5837 5836 5836 5835 5835 5834 5834 5833 5832 5832 5831 5831 5830 5830 5830 5829 5829 5829 5829 5830 5830 5830
5850 5849 5848 5847 5847 5847 5847 5846 5845 5845 5845 5845 5845 5844 5843 5842 5841 5840 5839 5838 5837 5836 5835 5835 5834 5833 5832 5831 5830 5829 5828 5828 5827 5826 5826 5825 5824 5824 5824 5823 5822 5822 5822 5822 5821 5821 5822 5822 5822
5844 5845 5845 5843 5843 5842 5843 5842 5840 5840 5840 5839 5839 5838 5837 5836 5835 5834 5833 5832 5831 5831 5830 5829 5828 5827 5825 5824 5823 5822 5821 5820 5819 5818 5818 5817 5817 5816 5815 5815 5814 5813 5813 5813 5813 5813 5813 5813 5813
5838 5839 5840 5839 5838 5837 5838 5838 5835 5834 5834 5833 5833 5832 5831 5830 5829 5828 5827 5827 5826 5825 5824 5822 5821 5820 5819 5817 5816 5815 5814 5813 5811 5810 5809 5808 5808 5807 5807 5806 5805 5803 5802 5802 5802 5802 5803 5803 5803
5831 5832 5833 5833 5831 5829 5830 5831 5829 5828 5827 5827 5827 5826 5825 5824 5822 5822 5821 5820 5819 5818 5817 5816 5815 5813 5812 5810 5809 5807 5806 5805 5803 5802 5801 5799 5798 5797 5797 5796 5795 5794 5793 5791 5791 5791 5791 5791 5792
5825 5825 5826 5826 5824 5822 5822 5823 5823 5822 5821 5821 5820 5819 5818 5817 5816 5815 5814 5813 5812 5811 5810 5809 5808 5806 5805 5803 5801 5800 5798 5797 5795 5793 5792 5790 5789 5788 5786 5785 5784 5783 5782 5781 5780 5779 5779 5779 5779
5818 5817 5818 5818 5816 5814 5814 5815 5816 5815 5815 5814 5812 5812 5811 5810 5809 5808 5807 5806 5805 5804 5803 5802 5801 5799 5797 5795 5793 5791 5789 5788 5786 5784 5782 5780 5778 5777 5775 5774 5772 5771 5770 5769 5768 5767 5766 5766 5765
5809 5809 5809 5809 5807 5806 5806 5807 5808 5808 5807 5806 5805 5804 5803 5802 5801 5800 5799 5798 5797 5796 5794 5793 5792 5790 5788 5786 5784 5782 5779 5777 5775 5773 5771 5769 5767 5765 5763 5761 5760 5758 5757 5756 5755 5754 5753 5752 5752
5801 5801 5800 5799 5798 5798 5797 5798 5801 5800 5798 5797 5796 5795 5795 5794 5793 5791 5790 5789 5787 5786 5784 5783 5781 5779 5777 5775 5773 5771 5768 5766 5763 5760 5758 5756 5754 5751 5749 5748 5746 5744 5743 5741 5740 5739 5739 5738 5737
5792 5792 5791 5790 5789 5789 5789 5788 5791 5791 5789 5788 5788 5786 5785 5784 5783 5781 5780 5778 5777 5775 5773 5771 5769 5767 5765 5763 5761 5758 5756 5753 5749 5747 5744 5742 5739 5737 5735 5733 5731 5729 5727 5726 5725 5724 5723 5722 5722
5783 5783 5783 5781 5780 5779 5780 5779 5780 5780 5780 5779 5778 5777 5775 5774 5773 5771 5769 5767 5765 5762 5760 5758 5756 5754 5751 5749 5746 5744 5741 5738 5734 5732 5729 5726 5724 5721 5719 5717 5715 5713 5711 5709 5708 5707 5706 5705 5705
5773 5774 5772 5771 5770 5770 5773 5770 5769 5769 5770 5769 5768 5767 5765 5763 5761 5759 5756 5753 5751 5748 5746 5744 5741 5739 5736 5733 5731 5728 5725 5722 5719 5716 5713 5710 5707 5704 5702 5699 5697 5695 5693 5691 5690 5688 5687 5686 5685
5764 5764 5763 5762 5761 5762 5762 5760 5760 5759 5758 5758 5756 5754 5752 5749 5747 5744 5741 5738 5735 5733 5730 5727 5725 5722 5719 5717 5714 5711 5708 5705 5702 5699 5696 5693 5689 5687 5684 5681 5679 5676 5674 5672 5671 5669 5668 5666 5665
5753 5754 5755 5754 5751 5751 5750 5749 5751 5749 5748 5746 5744 5742 5739 5736 5733 5730 5726 5723 5720 5717 5714 5711 5708 5705 5702 5699 5696 5693 5691 5688 5685 5682 5679 5675 5672 5668 5665 5662 5659 5657 5654 5652 5650 5648 5647 5645 5644
5742 5743 5744 5742 5740 5740 5739 5739 5739 5736 5735 5734 5732 5729 5727 5723 5719 5715 5712 5708 5705 5702 5698 5695 5691 5688 5685 5682 5679 5676 5673 5670 5667 5664 5660 5657 5654 5650 5647 5643 5640 5637 5634 5631 5628 5626 5625 5623 5621
5733 5733 5731 5730 5728 5727 5728 5728 5727 5725 5723 5722 5720 5717 5713 5710 5705 5701 5697 5694 5690 5686 5682 5678 5674 5671 5668 5665 5661 5658 5655 5652 5649 5645 5642 5638 5634 5631 5627 5623 5619 5615 5612 5609 5606 5603 5601 5599 5597
5721 5721 5719 5718 5716 5715 5714 5717 5712 5712 5710 5708 5705 5702 5697 5693 5689 5685 5682 5678 5674 5670 5665 5661 5657 5654 5650 5647 5644 5641 5637 5634 5630 5626 5622 5618 5613 5609 5605 5600 5596 5591 5587 5584 5580 5578 5575 5573 5571
5708 5709 5708 5706 5704 5701 5698 5703 5701 5700 5697 5693 5690 5686 5681 5677 5673 5669 5666 5662 5658 5653 5648 5644 5640 5636 5632 5629 5626 5622 5618 5614 5609 5605 5600 5596 5591 5585 5580 5575 5571 5566 5561 5557 5553 5550 5547 5545 5544